Location: ??
(35.1714°N, 128.2806°E)
Time: 15:01:45
(UTC+00:00)

ERS-2 - Pass Details

Date: 29 October 2020
Orbit: 493 x 497 km, 98.6° (Epoch: 30 November)

Event Time Altitude Azimuth Distance (km) Brightness Sun altitude
Rises 19:55:09 0° 159° (SSE) 2,564 6.0 -23.2°
Reaches altitude 10° 19:57:14 10° 156° (SSE) 1,685 5.1 -22.8°
Maximum altitude 20:00:48 62° 75° (ENE) 560 2.5 -22.0°
Enters shadow 20:03:09 20° 359° (N) 1,183 3.9 -21.6°
